Погода в Кишиневе

Погода в Кишиневе : погода сейчас, прогноз погоды и архив. Всё, что Вы хотите узнать о погоде в Кишиневе!

Хотите узнать прогноз погоды в Кишинёве? Тогда Вам сюда: Погода в Кишинёве

Поиск расширенной информации на нашем сайте:

Другие новости

Новости СМИ2

Главная страница сайта

Новости сайта

03.07.2017

Напоминаем, что на нашем специализированном сайте Метеоцентр.Азия вы можете получить высокодетализированные автоматические прогнозы погоды по пунктам России, СНГ и мира в авиационном формате (включающие направление и скорость ветра, видимость, явления погоды, количество и форму облачности, нижнюю и верхнюю границу облачности).


Погода в Кишиневе - сегодня

Время (UTC), дата Ветер
(°,м/с) 
Видим.   Явления Облачность Т
(°С)
Тd
(°С)
f(%) Тe
(°С)
Pmin
(гПа)
dP
(гПа)
Po
(мм)
O2
(г/м3)
Тmin Tmax R s Состояние
почвы
15 21.05.18 020 (С) 20000 м    4/4 600 м 
[Cu hum]
+21.5 +2.7 29 +22  1019.3  -1  750  280           
18 21.05.18 090 (В) 20000 м    ясно 
+18.7 +3.7 37 +20  1019.9  0.4  750  282    +22.4       
21 21.05.18 тихо ()   20000 м    ясно 
+17 +4 42 +17  1020.1  0.1  750  284           
00 22.05.18 040 (СВ) 20000 м    ясно 
+14.4 +4.9 53 +15  1020.3  750  286           
03 22.05.18 100 (В) 20000 м    3/0 верхняя 
[Ci fib]
+13.1 +5.5 60 +14  1020.5  0.1  750  288           
06 22.05.18 080 (В) 20000 м    10/0 верхняя 
[Ci fib]
+16.5 +7.4 55 +17  1021.4  1.1  751  284  +10.9         
09 22.05.18 090 (В) 20000 м    10/3 600 м средняя, верхняя 
[Cu hum|Ac trans|Ci fib]
+20.5 +6.1 39 +21  1021.4  0.3  751  281           
12 22.05.18 110 (В) 20000 м    10/3 600 м средняя, верхняя 
[Cu hum|Ac trans|Ci fib]
+22.6 +6 34 +23  1020.6  -0.6  751  278           
15 22.05.18 090 (В) 20000 м    4/3 600 м верхняя 
[Cu hum|Ci fib]
+23.3 +5.2 31 +23  1019.9  -0.7  750  278           
18 22.05.18 110 (В) 20000 м    1/0 верхняя 
[Ci fib]
+20.5 +5.7 38 +21  1020.1  750  280    +24.1       
21 22.05.18 240 (ЮЗ) 20000 м    ясно 
+17.1 +7.5 53 +18  1021.3  751  283           
00 23.05.18 350 (С) 20000 м    ясно 
+16.9 +7.5 54 +18  1020.8  -0.5  751  284           
03 23.05.18 тихо ()   20000 м    ясно 
+13.8 +7.8 67 +14  1021  751  287           
06 23.05.18 100 (В) 20000 м    3/1 400 м средняя, верхняя 
[Ac trans|Ci fib]
+19.3 +9.8 54 +21  1021.6  0.9  751  281  +13.5         
09 23.05.18 100 (В) 20000 м    3/1 600 м верхняя 
[Cu hum|Ci fib]
+23.9 +9.1 39 +24  1020.6  -0.6  751  277           
12 23.05.18 100 (В) 20000 м    8/8 600 м 
[Cu hum]
+26.2 +5.2 26 +26  1019.5  -1  750  275           
15 23.05.18 090 (В) 20000 м    6/6 600 м 
[Cu hum]
+26.2 +6.8 29 +26  1017.8  -1.6  749  274           
18 23.05.18 050 (СВ) 20000 м    3/3 420 м средняя, верхняя 
[Ac trans|Ci fib]
+23.2 +6.1 33 +23  1017.5  -0.5  748  277    +27.3       
21 23.05.18 тихо ()   20000 м    3/0 верхняя 
[Ci fib]
+19.8 +6.5 42 +20  1018.3  0.5  749  280           
00 24.05.18 тихо ()   20000 м    ясно 
+19.5 +6.6 43 +20  1017.4  -0.9  748  280           
03 24.05.18 020 (С) 20000 м    3/0 средняя, верхняя 
[Ac trans|Ci fib]
+16.1 +7.3 56 +17  1017.3  -0.3  748  283           
06 24.05.18 360 (С) 20000 м    3/1 330 м средняя, верхняя 
[Ac trans|Ci fib]
+20.3 +9.5 50 +21  1017  748  279  +15.4         
09 24.05.18 020 (С) 20000 м    5/5 600 м 
[Cu med, cong]
+25.8 +11.9 42 +30  1016.4  -0.2  748  273           
12 24.05.18 090 (В) 20000 м    8/8 600 м 
[Cu med, cong]
+27.8 +7.1 27 +28  1014.8  -1.5  747  272           
15 24.05.18 030 (СВ) 10 км    8/8 600 м кучево-дожд. 
[Cb calv]
+27.7 +8.6 30 +28  1013.5  -0.3  746  271           
Время (UTC), дата Ветер
(°,м/с) 
Видим.   Явления Облачность Т
(°С)
Тd
(°С)
f(%) Тe
(°С)
Pmin
(гПа)
dP
(гПа)
Po
(мм)
O2
(г/м3)
Тmin Tmax R s Состояние
почвы

Для получения пояснительной информации подведите курсор к названию столбца.

ПОГОДА в Кишиневе - архив

Всё, что Вы хотите узнать о погоде в Кишиневе - удобно и подробно!

Выберите нужную дату (начиная с 1 января 2015* года) и нажмите кнопку "Найти".
Будут отображены архивные сводки погоды по пункту Кишинев, начиная с указанной даты.


Отображать данные в формате CSV (для использования в таблицах Excel)


Внимание! Наш архив погоды предназначен исключительно для личного некоммерческого использования в познавательных целях. Если Вам необходимы официальные справки о состоянии погоды (для производственных, юридических, коммерческих и т.п. целей), обращайтесь в органы Росгидромета.

*Примечание: данная дата относится к архиву по метеостанциям СССР (Россия, СНГ, Балтия).
Архив по метеостанциям Зарубежной Европы и Азии (кроме Китая) хранится 10 дней, по другим регионам земного шара (Китай, Африка, Америка, Австралия, Океания) - 1 день.

Кишинев - район местоположения метеостанции


Название, широта, долгота, высота метеостанции:
Кишинев 47°ш. 29°д. 173 м над ур. моря [Молдавия]

Дополнительная информация

В oтличие oт бoльшинства пoгoдных сайтoв мы публикуем пoдрoбную метеoинфoрмацию в детальнoм прoфессиoнальнoм фoрмате.

Характеристики температуры и влажнoсти вoздуха измеряются на высoте 2 м в тени вдали oт зданий и деревьев.
Скoрoсть ветра измеряется на высoте 10 м (на урoвне рoста челoвека скoрoсть ветра ниже в 1.5-2 раза). Если метеoстанция нахoдится в гoрoде или в лесу, тo скoрoсть ветра занижена на 2-4 м/с пo сравнению с oткрытым местoм. Скoрoсть ветра над акватoриями крупных рек и oзёр, а также на вершинах хoлмoв на 2-5 м/с выше, чем в oбычных услoвиях.
Атмoсфернoе давление в разных тoчках местнoсти мoжет значительнo oтличаться oт давления на метеoстанции, в зависимoсти oт услoвий рельефа (при пoдъёме на 10 м давление пoнижается примернo на 1 мм рт.ст.).